Fort Myers Airport, FL

6:13 AM EDT on July 28, 2017 (GMT -0400)
Southwest Florida International

Weather History for KRSW - September, 2012

Change the Weather History Date:

Tuesday, September 25, 2012

  Actual Average Record
Temperature  
Mean Temperature 79 °F -  
Max Temperature 86 °F 89 °F 95 °F (1972)
Min Temperature 72 °F 73 °F 66 °F (1947)
Cooling Degree Days 14    
Growing Degree Days 29 (Base 50)    
Moisture  
Dew Point 67 °F    
Average Humidity 70    
Maximum Humidity 82    
Minimum Humidity 55    
Precipitation  
Precipitation 0.00 in - - ()
Sea Level Pressure  
Sea Level Pressure 30.05 in    
Wind  
Wind Speed 5 mph (ENE)    
Max Wind Speed 8 mph    
Max Gust Speed -    
Visibility 10 miles    
Events      
Averages and records for this station are not official NWS values.
T = Trace of Precipitation, MM = Missing Value Source: NWS Daily Summary

Daily Weather History Graph

Daily Weather History Graph

Search for Another Location

Airport or City:

Trip Planner

Search our weather history database for the weather conditions in past years. The results will help you decide how hot, cold, wet, or windy it might be!

Date:

Astronomy

Sep. 25, 2012 Rise Set
Actual Time 7:17 AM EDT 7:19 PM EDT
Civil Twilight 6:53 AM EDT 7:42 PM EDT
Nautical Twilight 6:27 AM EDT 8:09 PM EDT
Astronomical Twilight 6:00 AM EDT 8:36 PM EDT
Moon 4:24 PM EDT (9/25) 2:59 AM EDT (9/25)
Length of Visible Light 12h 48m
Length of Day
12h 02m
Waxing Gibbous, 80% of the Moon is Illuminated
Sep 25
Waxing Gibbous
Sep 29
Full
Oct 8
Last Quarter
Oct 15
New
Oct 21
First Quarter

Hourly Weather History & Observations

Time (EDT) Temp. Heat Index Dew Point Humidity Pressure Visibility Wind Dir Wind Speed Gust Speed Precip Events Conditions
12:53 AM 73.0 °F - 66.9 °F 81% 30.04 in 10.0 mi ENE 4.6 mph - N/A   Clear
1:53 AM 73.0 °F - 66.9 °F 81% 30.04 in 10.0 mi ENE 3.5 mph - N/A   Clear
2:53 AM 73.0 °F - 66.0 °F 79% 30.02 in 10.0 mi NE 4.6 mph - N/A   Clear
3:53 AM 73.0 °F - 64.9 °F 76% 30.01 in 10.0 mi NE 6.9 mph - N/A   Clear
4:53 AM 72.0 °F - 64.0 °F 76% 30.02 in 10.0 mi NE 4.6 mph - N/A   Clear
5:53 AM 72.0 °F - 64.0 °F 76% 30.03 in 10.0 mi NE 5.8 mph - N/A   Clear
6:53 AM 72.0 °F - 64.0 °F 76% 30.04 in 10.0 mi NNE 4.6 mph - N/A   Clear
7:53 AM 72.0 °F - 64.0 °F 76% 30.05 in 10.0 mi NNE 4.6 mph - N/A   Clear
8:53 AM 73.0 °F - 64.0 °F 73% 30.06 in 10.0 mi NE 8.1 mph - N/A   Clear
9:53 AM 75.9 °F - 64.9 °F 69% 30.07 in 10.0 mi ENE 5.8 mph - N/A   Clear
10:53 AM 79.0 °F - 66.0 °F 64% 30.09 in 10.0 mi NE 5.8 mph - N/A   Clear
11:53 AM 82.0 °F 84.9 °F 68.0 °F 62% 30.09 in 10.0 mi East 5.8 mph - N/A   Clear
12:53 PM 82.9 °F 85.8 °F 68.0 °F 60% 30.07 in 10.0 mi East 5.8 mph - N/A   Clear
1:53 PM 84.0 °F 87.0 °F 68.0 °F 58% 30.04 in 10.0 mi SE 8.1 mph - N/A   Scattered Clouds
2:53 PM 86.0 °F 89.4 °F 68.0 °F 55% 30.02 in 10.0 mi Variable 4.6 mph - N/A   Scattered Clouds
3:53 PM 86.0 °F 89.4 °F 68.0 °F 55% 30.00 in 10.0 mi ENE 5.8 mph - N/A   Scattered Clouds
4:53 PM 86.0 °F 89.4 °F 68.0 °F 55% 30.01 in 10.0 mi East 5.8 mph - N/A   Partly Cloudy
5:53 PM 84.0 °F 87.8 °F 69.1 °F 61% 30.01 in 10.0 mi NE 4.6 mph - N/A   Mostly Cloudy
6:53 PM 82.9 °F 86.5 °F 69.1 °F 63% 30.03 in 10.0 mi NNE 5.8 mph - N/A   Overcast
7:53 PM 78.1 °F - 71.1 °F 79% 30.04 in 10.0 mi ESE 6.9 mph - 0.00 in   Overcast
8:53 PM 78.1 °F - 71.1 °F 79% 30.06 in 10.0 mi East 3.5 mph - N/A   Partly Cloudy
9:53 PM 78.1 °F - 70.0 °F 76% 30.08 in 10.0 mi ENE 3.5 mph - N/A   Clear
10:53 PM 77.0 °F - 70.0 °F 79% 30.08 in 10.0 mi East 4.6 mph - N/A   Clear
11:53 PM 77.0 °F - 71.1 °F 82% 30.09 in 10.0 mi ENE 5.8 mph - N/A   Mostly Cloudy